Weather in Kholkina

Russia / Sverdlovsk Oblast     57°03′49″N   63°00′37″E
temp.,
°C
wind,
m/s
gust,
m/s
humid.,
%
clouds,
%
prec.,
mm/h
press.,
hPa
HPBL,
m
8 august, mon
mon823:00+18ne118646 0.2 101811
02:00+17nne1188100 0.0 101911
05:00+17nne228869 0.0 101911
08:00+21ne227276 0.0 1019210
11:00+26ne345092 0.0 10191352
14:00+27ne4442100 0.0 10181839
17:00+27ene3344100 0.0 10181602
20:00+22ene226253 0.0 101817
9 august, tue
tue923:00+18se22765 0.0 101911
02:00+17w22805 0.0 101911
05:00+16wnw22821 0.0 101911
08:00+22nnw22630 0.0 1019211
11:00+27nnw22470 0.0 10181243
14:00+29nne23381 0.0 10172460
17:00+29ene343713 0.0 10162155
20:00+22nnw346440 0.0 101749
10 august, wed
wed1023:00+18nnw33784 0.0 101746
02:00+17nnw33905 0.0 101744
05:00+16n359411 0.0 101882
08:00+21n357060 0.0 1018307
11:00+26nne445450 0.0 1018892
14:00+28ne444591 0.0 10181876
17:00+28ne444486 0.0 10171778
20:00+24ene335774 0.0 101868
11 august, thu
thu1123:00+21e366960 0.0 1018128
02:00+18ese348372 0.0 101888
05:00+18se338799 0.8 101853
08:00+21s34755 0.1 1018275
11:00+26ssw45545 0.1 10171042
14:00+29ssw454232 0.0 10162282
17:00+27sw354656 0.0 1015679
20:00+23sw4959100 0.0 1014222
12 august, fri
fri1223:00+21sw2266100 0.1 101328
02:00+18wsw3883100 0.0 1012156
05:00+17w2296100 0.8 101117
08:00+17wnw2693100 1.3 1011246
11:00+17ssw2396100 3.0 1011190
14:00+21w686820 1.4 10111172
17:00+21w695221 1.8 10101806
20:00+19wnw6125975 0.1 1010623